Le nostre stazioni meteo in Italia

Pubblicità
Il mio iltempo24.it
Lulea/Kallax, Svezia (2186): Temperatura & dewpoint: 23.06.2017 00:00:00 - 29.06.2017 00:00:00 (CEST)Lulea/Kallax, Svezia (2186): velocità del vento & gusts: 23.06.2017 00:00:00 - 29.06.2017 00:00:00 (CEST)Lulea/Kallax, Svezia (2186): direzione del vento: 23.06.2017 00:00:00 - 29.06.2017 00:00:00 (CEST)Lulea/Kallax, Svezia (2186): reduced air pressure: 23.06.2017 00:00:00 - 29.06.2017 00:00:00 (CEST)Lulea/Kallax, Svezia (2186): visibility: 23.06.2017 00:00:00 - 29.06.2017 00:00:00 (CEST)Lulea/Kallax, Svezia (2186): precipitazioni: 23.06.2017 00:00:00 - 29.06.2017 00:00:00 (CEST)
Data & Tempo tt [°C] td [°C] ff [km/h] ff [kn] fx [km/h] fx [kn] dd ppp [hPa] vv [km] rr [mm]
29.06.2017 00:00:00 10,6 9,3 0 0 11 6 N 1011,9 10 0,0
28.06.2017 23:00:00 11,9 9,8 5 3 11 6 SSO 1011,8 10 0,0
28.06.2017 22:00:00 12,8 8,7 5 3 11 6 SSE 1011,4 10 0,0
28.06.2017 21:00:00 14,0 7,7 8 4 18 10 SSO 1011,1 10 0,0
28.06.2017 20:00:00 13,4 7,5 9 5 18 10 S 1010,7 10 0,0
28.06.2017 19:00:00 13,5 7,7 13 7 18 10 S 1010,7 10 0,0
28.06.2017 18:00:00 15,0 8,2 13 7 14 8 S 1010,2 10 0,0
28.06.2017 17:00:00 14,6 7,6 13 7 18 10 S 1010,1 10 0,1
28.06.2017 16:00:00 15,1 8,1 9 5 14 8 SE 1009,8 10 0,0
28.06.2017 15:00:00 15,4 7,2 9 5 18 10 E 1009,3 10 0,0
28.06.2017 14:00:00 16,2 7,4 9 5 29 16 E 1008,8 10 0,0
28.06.2017 13:00:00 16,0 5,9 18 10 32 18 NO 1008,4 10 0,0
28.06.2017 12:00:00 16,1 6,8 21 11 32 18 NO 1008,1 10 0,0
28.06.2017 11:00:00 15,4 7,2 22 12 32 18 NO 1007,7 10 0,0
28.06.2017 10:00:00 14,2 7,0 22 12 36 19 NO 1007,3 10 0,0
28.06.2017 09:00:00 13,1 6,9 26 14 36 19 NO 1006,9 10 0,0
28.06.2017 08:00:00 12,9 6,7 22 12 32 18 NO 1006,4 10 0,0
28.06.2017 07:00:00 11,9 6,2 21 11 32 18 NNO 1006,0 10 0,0
28.06.2017 06:00:00 11,3 6,0 18 10 32 18 NNO 1005,6 45 0,0
28.06.2017 05:00:00 11,0 5,9 21 11 32 18 NNO 1005,3 10 0,0
28.06.2017 04:00:00 10,3 6,6 18 10 25 14 NO 1004,8 10 0,0
28.06.2017 03:00:00 9,9 7,1 16 9 25 14 NO 1004,4 10 0,0
28.06.2017 02:00:00 10,5 7,0 15 8 25 14 NNO 1003,9 10 0,0
28.06.2017 01:00:00 11,3 7,4 18 10 29 16 NNO 1003,4 10 0,0
28.06.2017 00:00:00 11,9 7,6 21 11 32 18 NNO 1002,9 10 0,0
27.06.2017 23:00:00 12,8 8,7 16 9 29 16 NNO 1002,0 10 0,0
27.06.2017 22:00:00 13,1 9,0 16 9 25 14 NNO 1001,5 10 0,0
27.06.2017 21:00:00 13,3 10,1 13 7 25 14 NNO 1000,9 10 0,0
27.06.2017 20:00:00 13,4 9,6 21 11 36 19 NNO 1000,4 10 0,0
27.06.2017 19:00:00 13,3 10,5 24 13 36 19 NO 999,8 10 0,0
27.06.2017 18:00:00 13,0 11,2 24 13 36 19 NO 999,4 10 0,6
27.06.2017 17:00:00 12,1 10,3 21 11 43 23 NNO 999,1 10 6,0
27.06.2017 16:00:00 14,9 10,3 21 11 29 16 NO 998,3 10 0,0
27.06.2017 15:00:00 13,1 10,5 18 10 40 21 NO 997,9 10 3,0
27.06.2017 14:00:00 16,4 9,3 13 7 25 14 NNO 997,1 10 0,0
27.06.2017 13:00:00 14,8 10,2 15 8 25 14 N 996,7 10 0,0
27.06.2017 12:00:00 13,5 11,7 11 6 40 21 NNO 996,3 10 1,0
27.06.2017 11:00:00 12,1 10,2 16 9 40 21 NNO 995,6 10 2,0
27.06.2017 10:00:00 12,8 11,2 18 10 25 14 NNO 995,0 10 1,0
27.06.2017 09:00:00 12,9 10,4 16 9 25 14 NNO 994,4 10 0,4
27.06.2017 08:00:00 13,0 10,9 13 7 25 14 NNO 993,8 10 0,0
27.06.2017 07:00:00 12,1 10,5 15 8 25 14 NNO 993,5 10 0,0
27.06.2017 06:00:00 11,6 10,5 15 8 25 14 NNO 993,0 10 0,0
27.06.2017 05:00:00 11,2 10,3 15 8 22 12 NNO 992,4 10 0,0
27.06.2017 04:00:00 11,1 10,2 13 7 18 10 NNO 992,1 10 0,0
27.06.2017 03:00:00 11,2 10,4 15 8 22 12 NNO 991,6 10 0,0
27.06.2017 02:00:00 10,9 10,3 11 6 18 10 NO 991,4 10 0,0
27.06.2017 01:00:00 10,9 10,1 9 5 14 8 ONO 991,3 10 0,0
27.06.2017 00:00:00 10,7 9,9 5 3 11 6 ONO 991,1 10 0,5
26.06.2017 23:00:00 10,6 10,0 8 4 11 6 ONO 991,0 10 0,1
26.06.2017 22:00:00 10,7 9,8 4 2 14 8 - 991,0 10 0,7
26.06.2017 21:00:00 11,1 10,2 5 3 14 8 ONO 990,9 10 0,8
26.06.2017 20:00:00 11,1 10,0 4 2 7 4 - 990,9 10 2,0
26.06.2017 19:00:00 11,8 9,4 0 0 7 4 N 990,7 27 0,4
26.06.2017 18:00:00 13,1 9,9 5 3 14 8 OSO 990,4 10 0,0
26.06.2017 17:00:00 13,3 9,9 8 4 18 10 ONO 990,1 10 0,0
26.06.2017 16:00:00 12,8 9,2 5 3 11 6 O 990,0 10 0,0
26.06.2017 15:00:00 11,2 9,3 8 4 14 8 ONO 990,0 10 0,2
26.06.2017 14:00:00 11,6 9,3 8 4 11 6 O 990,1 10 1,0
26.06.2017 13:00:00 11,8 8,6 4 2 14 8 - 989,7 10 3,0
26.06.2017 12:00:00 13,3 9,4 11 6 14 8 SSE 989,6 10 0,4
26.06.2017 11:00:00 12,7 9,2 5 3 11 6 SSE 989,4 10 0,0
26.06.2017 10:00:00 12,5 9,1 4 2 11 6 - 989,4 10 0,0
26.06.2017 09:00:00 12,4 9,9 4 2 11 6 - 989,2 10 0,0
26.06.2017 08:00:00 11,3 9,4 2 1 7 4 - 989,1 10 0,0
26.06.2017 07:00:00 10,8 9,7 2 1 7 4 - 989,1 10 0,0
26.06.2017 06:00:00 10,1 9,3 8 4 11 6 SE 989,0 10 0,0
26.06.2017 05:00:00 9,7 9,1 8 4 11 6 SE 989,1 10 0,0
26.06.2017 04:00:00 9,4 8,6 11 6 18 10 ESE 989,1 10 0,0
26.06.2017 03:00:00 8,0 7,6 11 6 18 10 SE 989,2 10 0,0
26.06.2017 02:00:00 7,8 7,4 8 4 14 8 E 989,2 10 0,0
26.06.2017 01:00:00 8,5 8,1 8 4 14 8 ESE 989,3 10 0,0
26.06.2017 00:00:00 8,1 7,7 8 4 14 8 E 989,3 10 0,0
25.06.2017 23:00:00 9,2 8,4 9 5 18 10 ESE 989,4 10 0,0
25.06.2017 22:00:00 10,2 9,4 11 6 14 8 SSE 989,5 10 0,0
25.06.2017 21:00:00 10,3 9,7 13 7 18 10 SSE 989,8 10 0,0
25.06.2017 20:00:00 10,6 9,8 15 8 29 16 SE 989,8 10 0,2
25.06.2017 19:00:00 11,0 10,2 13 7 25 14 E 990,0 6 1,0
25.06.2017 18:00:00 10,9 10,1 15 8 29 16 E 990,5 7 0,0
25.06.2017 17:00:00 10,8 9,9 16 9 29 16 E 990,8 10 0,0
25.06.2017 16:00:00 10,9 9,8 16 9 32 18 E 991,1 10 0,1
25.06.2017 15:00:00 10,6 9,5 15 8 29 16 E 991,6 10 0,5
25.06.2017 14:00:00 10,6 9,4 16 9 25 14 ESE 992,3 10 1,0
25.06.2017 13:00:00 10,6 9,4 24 13 40 21 ESE 992,6 10 1,0
25.06.2017 12:00:00 12,8 10,2 13 7 29 16 E 992,5 10 0,0
25.06.2017 11:00:00 12,5 9,7 13 7 25 14 E 992,8 10 0,0
25.06.2017 10:00:00 11,3 9,4 9 5 22 12 E 993,0 10 0,4
25.06.2017 09:00:00 11,9 8,7 11 6 22 12 ESE 993,5 10 0,0
25.06.2017 08:00:00 12,3 8,8 11 6 18 10 ESE 993,6 45 0,0
25.06.2017 07:00:00 12,0 8,7 9 5 14 8 E 994,0 10 0,0
25.06.2017 06:00:00 12,0 8,8 9 5 18 10 E 994,6 10 0,0
25.06.2017 05:00:00 11,7 8,2 4 2 14 8 - 995,0 10 0,0
25.06.2017 04:00:00 11,5 8,4 2 1 7 4 - 995,4 10 0,0
25.06.2017 03:00:00 11,4 8,4 4 2 7 4 - 996,0 10 0,0
25.06.2017 02:00:00 10,9 8,1 2 1 7 4 - 996,5 10 0,0
25.06.2017 01:00:00 10,7 8,5 2 1 7 4 - 997,1 10 0,0
25.06.2017 00:00:00 10,7 8,3 4 2 7 4 - 997,5 10 0,0
24.06.2017 23:00:00 10,3 7,7 4 2 7 4 E 998,0 10 0,0
24.06.2017 22:00:00 10,4 7,5 4 2 11 6 E 998,4 10 0,0
24.06.2017 21:00:00 10,2 7,3 8 4 14 8 ESE 998,8 10 0,0
24.06.2017 20:00:00 10,2 6,5 9 5 14 8 SE 999,0 10 0,0
24.06.2017 19:00:00 10,3 6,4 11 6 18 10 SE 999,3 10 0,0
24.06.2017 18:00:00 10,8 6,2 11 6 14 8 ESE 999,7 10 0,0
24.06.2017 17:00:00 10,5 5,9 11 6 14 8 SE 1000,1 10 0,0
24.06.2017 16:00:00 10,7 6,6 11 6 14 8 S 1000,8 10 0,0
24.06.2017 15:00:00 10,2 6,0 15 8 22 12 SSE 1001,1 10 0,0
24.06.2017 14:00:00 10,5 6,4 16 9 22 12 SE 1001,3 10 0,0
24.06.2017 13:00:00 10,7 6,6 13 7 25 14 S 1001,9 10 0,0
24.06.2017 12:00:00 11,0 7,1 18 10 25 14 S 1002,0 10 0,0
24.06.2017 11:00:00 11,2 6,7 18 10 25 14 S 1002,1 10 0,0
24.06.2017 10:00:00 11,5 7,4 18 10 25 14 S 1002,2 10 0,0
24.06.2017 09:00:00 11,2 8,1 16 9 25 14 S 1002,2 10 0,0
24.06.2017 08:00:00 10,8 8,0 16 9 22 12 SE 1002,6 10 0,0
24.06.2017 07:00:00 10,5 7,9 13 7 14 8 SE 1002,8 10 0,0
24.06.2017 06:00:00 10,0 7,8 11 6 14 8 S 1003,3 10 0,0
24.06.2017 05:00:00 9,7 7,6 9 5 14 8 SSE 1003,5 10 0,0
24.06.2017 04:00:00 9,3 7,7 5 3 7 4 SSE 1003,9 10 0,0
24.06.2017 03:00:00 8,6 7,1 5 3 7 4 S 1004,3 10 0,0
24.06.2017 02:00:00 8,4 6,4 2 1 7 4 - 1004,8 10 0,0
24.06.2017 01:00:00 9,1 6,2 4 2 7 4 - 1004,9 10 0,0
24.06.2017 00:00:00 9,2 6,3 8 4 11 6 OSO 1005,4 10 0,0
23.06.2017 23:00:00 9,4 6,5 5 3 11 6 SSO 1005,5 10 0,0
23.06.2017 22:00:00 9,7 6,2 5 3 14 8 SSO 1005,9 10 0,0
23.06.2017 21:00:00 9,9 6,1 8 4 14 8 SSO 1006,1 10 0,0
23.06.2017 20:00:00 10,0 5,6 9 5 18 10 SSO 1006,4 10 0,0
23.06.2017 19:00:00 10,2 5,4 11 6 22 12 SSO 1006,8 10 0,0
23.06.2017 18:00:00 11,7 5,3 13 7 25 14 S 1006,8 10 0,0
23.06.2017 17:00:00 11,9 5,1 13 7 18 10 S 1006,9 10 0,0
23.06.2017 16:00:00 11,1 5,4 15 8 22 12 S 1007,3 10 0,0
23.06.2017 15:00:00 11,2 4,9 11 6 18 10 SSE 1007,4 10 0,0
23.06.2017 14:00:00 11,4 4,4 8 4 14 8 NE 1007,5 10 0,0
23.06.2017 13:00:00 10,9 4,1 9 5 18 10 N 1007,8 10 0,0
23.06.2017 12:00:00 10,5 4,2 9 5 18 10 N 1008,2 10 0,0
23.06.2017 11:00:00 9,9 4,1 13 7 22 12 NNO 1008,3 10 0,0
23.06.2017 10:00:00 9,1 3,7 15 8 25 14 NNO 1008,2 10 0,0
23.06.2017 09:00:00 8,6 4,0 15 8 25 14 N 1008,0 10 0,0
23.06.2017 08:00:00 8,2 4,0 13 7 25 14 N 1008,0 10 0,0
23.06.2017 07:00:00 7,8 4,0 13 7 25 14 N 1008,0 10 0,0
23.06.2017 06:00:00 7,3 4,3 11 6 22 12 NNO 1007,9 10 0,0
23.06.2017 05:00:00 7,2 4,3 13 7 22 12 NNO 1007,8 10 0,0
23.06.2017 04:00:00 7,1 4,4 15 8 22 12 NNO 1007,8 10 0,0
23.06.2017 03:00:00 7,2 4,2 15 8 25 14 NNO 1007,7 10 0,0
23.06.2017 02:00:00 7,5 3,7 15 8 25 14 NNO 1007,5 10 0,0
23.06.2017 01:00:00 8,0 3,6 13 7 25 14 N 1007,2 10 0,0
23.06.2017 00:00:00 8,4 3,4 13 7 25 14 NNO 1007,0 10 0,0

tt = Temperatura
td = dewpoint
ff = velocità del vento
fx = gusts
dd = direzione del vento
ppp = reduced air pressure
vv = visibility
rr = precipitazioni

Stazioni seguenti

WeatherPro
AMSI
MeteoEarth